[ hide orbit diagram ]
For accurate long-term ephemerides, please instead use our Horizons system.This orbit viewer was implemented using two-body methods, and hence should not be used for determining accurate long-term trajectories (over several years or decades) or planetary encounter circumstances.
|
Orbital Elements at Epoch 2458679.5 (2019-Jul-15.0) TDB
Reference: JPL K192/7 (heliocentric ecliptic J2000)
Element | Value | Uncertainty (1-sigma) | Units |
e | .6851211084947294 | 8.1363e-08 | |
a | 3.045328518763871 | 6.9646e-07 | au |
q | .9589096682577553 | 7.3524e-08 | au |
i | 5.897394919082268 | 8.2943e-06 | deg |
node | 68.92462865910687 | 8.9712e-05 | deg |
peri | 9.847265516657052 | 9.0589e-05 | deg |
M | 330.512951188892 | 1.1262e-05 | deg |
tp | 2458838.493166626038 (2019-Dec-20.99316663) | 1.4853e-05 | TDB |
period | 1941.107784371144 5.31 | 0.00066589 1.823e-06 | d yr |
n | .1854611077749237 | 6.3622e-08 | deg/d |
Q | 5.131747369269986 | 1.1736e-06 | au |
|
| | Orbit Determination Parameters
Additional Information
|
[ show covariance matrix ]
[ show close-approach data ]
Alternate Designations
Perihelion Year (est.) | New-Style Desig | Roman Numeral | Year/ Letter | 2004.0 | 289P/2003 WY25 | | |
1818.0 | 289P/1819 W1 | | |
|
|